Weather History for KSNS - January, 2014

Change the Weather History Date:

Friday, January 31, 2014

  Actual Average Record
Temperature  
Mean Temperature 53 °F 52 °F  
Max Temperature 61 °F 62 °F 79 °F (1976)
Min Temperature 45 °F 42 °F 28 °F (1946)
Degree Days  
Heating Degree Days 12 13  
Month to date heating degree days 241 423  
Since 1 July heating degree days 1170 1478  
Cooling Degree Days 0 0  
Month to date cooling degree days 2 0  
Year to date cooling degree days 2 0  
Growing Degree Days 3 (Base 50)    
Moisture  
Dew Point 44 °F    
Average Humidity 71    
Maximum Humidity 93    
Minimum Humidity 49    
Precipitation  
Precipitation 0.01 in 0.09 in 1.17 in (1963)
Month to date precipitation 0.12 2.60  
Year to date precipitation 0.12 2.60  
Since 1 July precipitation 1.06 6.71  
Sea Level Pressure  
Sea Level Pressure 30.05 in    
Wind  
Wind Speed 7 mph (WSW)    
Max Wind Speed 16 mph    
Max Gust Speed 18 mph    
Visibility 10 miles    
Events Rain    
T = Trace of Precipitation, MM = Missing Value Source: NWS Daily Summary

Daily Weather History Graph

Daily Weather History Graph

Search for Another Location

Airport or City:

Trip Planner

Search our weather history database for the weather conditions in past years. The results will help you decide how hot, cold, wet, or windy it might be!

Date:

Astronomy

Jan. 31, 2014 Rise Set
Actual Time 7:09 AM PST 5:31 PM PST
Civil Twilight 6:41 AM PST 5:58 PM PST
Nautical Twilight 6:10 AM PST 6:29 PM PST
Astronomical Twilight 5:40 AM PST 6:59 PM PST
Moon 7:25 AM PST (1/31) 6:58 PM PST (1/31)
Length of Visible Light 11h 16m
Length of Day
10h 22m
New Moon, 1% of the Moon is Illuminated
Jan 31
New Moon
Feb 6
First Quarter
Feb 14
Full
Feb 22
Last Quarter
Mar 1
New

Hourly Weather History & Observations

Time (PST) Temp. Windchill Dew Point Humidity Pressure Visibility Wind Dir Wind Speed Gust Speed Precip Events Conditions
12:53 AM 53.1 °F - 45.0 °F 74% 29.96 in 10.0 mi West 3.5 mph - 0.00 in   Overcast
1:53 AM 52.0 °F - 46.9 °F 83% 29.97 in 8.0 mi WSW 4.6 mph - 0.00 in Rain Light Rain
2:53 AM 51.1 °F - 46.0 °F 83% 29.98 in 10.0 mi WSW 3.5 mph - 0.00 in   Overcast
3:45 AM 51.8 °F - 46.4 °F 82% 29.95 in 10.0 mi WSW 3.5 mph - 0.00 in   Mostly Cloudy
3:53 AM 50.0 °F - 46.0 °F 86% 29.98 in 10.0 mi Calm Calm - 0.00 in   Scattered Clouds
4:31 AM 48.2 °F - 46.4 °F 93% 29.97 in 10.0 mi Calm Calm - N/A   Mostly Cloudy
4:49 AM 48.2 °F - 44.6 °F 87% 29.97 in 10.0 mi Calm Calm - N/A   Partly Cloudy
4:53 AM 48.0 °F - 45.0 °F 89% 30.00 in 10.0 mi Calm Calm - N/A   Partly Cloudy
5:53 AM 46.9 °F - 45.0 °F 93% 30.01 in 8.0 mi Calm Calm - N/A   Clear
6:53 AM 46.0 °F 44.8 °F 43.0 °F 89% 30.03 in 8.0 mi NNE 3.5 mph - N/A   Clear
7:53 AM 48.0 °F - 45.0 °F 89% 30.05 in 8.0 mi Calm Calm - 0.01 in   Clear
8:53 AM 52.0 °F - 46.0 °F 80% 30.07 in 9.0 mi NW 3.5 mph - N/A   Clear
9:53 AM 55.0 °F - 46.0 °F 72% 30.10 in 10.0 mi West 5.8 mph - N/A   Mostly Cloudy
10:27 AM 55.4 °F - 46.4 °F 72% 30.08 in 10.0 mi West 6.9 mph - N/A   Partly Cloudy
10:53 AM 57.0 °F - 43.0 °F 59% 30.10 in 10.0 mi WNW 9.2 mph - N/A   Partly Cloudy
11:53 AM 59.0 °F - 44.1 °F 58% 30.09 in 10.0 mi West 10.4 mph - N/A   Scattered Clouds
12:01 PM 57.2 °F - 42.8 °F 59% 30.06 in 10.0 mi WNW 12.7 mph - N/A   Mostly Cloudy
12:16 PM 57.2 °F - 44.6 °F 63% 30.06 in 10.0 mi West 11.5 mph - N/A   Scattered Clouds
12:53 PM 55.9 °F - 43.0 °F 62% 30.08 in 10.0 mi WSW 6.9 mph - N/A   Partly Cloudy
1:53 PM 59.0 °F - 41.0 °F 51% 30.06 in 10.0 mi West 6.9 mph - N/A   Clear
2:53 PM 60.1 °F - 41.0 °F 49% 30.06 in 10.0 mi WSW 11.5 mph - N/A   Clear
3:53 PM 60.1 °F - 41.0 °F 49% 30.06 in 10.0 mi West 12.7 mph - N/A   Clear
4:53 PM 57.9 °F - 43.0 °F 58% 30.06 in 10.0 mi WSW 13.8 mph - N/A   Clear
5:53 PM 54.0 °F - 43.0 °F 66% 30.08 in 10.0 mi SSW 10.4 mph - N/A   Clear
6:53 PM 54.0 °F - 42.1 °F 64% 30.09 in 10.0 mi West 9.2 mph - N/A   Clear
7:53 PM 52.0 °F - 42.1 °F 69% 30.10 in 10.0 mi SW 8.1 mph - N/A   Clear
8:53 PM 50.0 °F - 42.1 °F 74% 30.11 in 10.0 mi SW 9.2 mph - N/A   Clear
9:53 PM 50.0 °F - 42.1 °F 74% 30.12 in - SSW 8.1 mph - N/A   Clear
10:53 PM 48.9 °F - 42.1 °F 77% 30.12 in - SW 8.1 mph - N/A   Clear
11:53 PM 48.9 °F - 42.1 °F 77% 30.12 in 10.0 mi SW 6.9 mph - N/A   Clear